ONEWEB-0205, 48226

Orbit data source: Space-Track

ONEWEB-0205, 48226 is a payload satellite owned by One Web (NAA) (UK) in LEO that was launched on Sun, 25 Apr 2021 UTC via a SOYUZ-2-1B launch vehicle from the Vostochny Cosmodrome (VOSTO). Payload-class satellites include a variety of spacecraft equipped with specific instruments for various scientific and technological missions. These include communications satellites like Starlink; space stations such as the ISS; scientific satellites like the Hubble; Earth observation satellites from companies like Planet Labs, Umbra, and HawkEye 360; GPS; miniature CubeSats for education and research; and military/defense satellites.

Loading next visibility...
Identifier
48226, 2021-031S
Orbit
LEO
Country
Flag of UKUK
Related business
Manufacturer
One Web
Mission
Operational Commercial Communications
Bus & Motor
ARROW, Unknown motor
Mass
148 kg wet, ~140 kg dry
Launch date (UTC)
2021-04-25 (5 years ago)
Launch vehicle
SOYUZ-2-1B
Launch site
Vostochny Cosmodrome (VOSTO)
Object type
Payload
Rocket body
Debris
Shape & HBR
Trap Box + 2 Pan, 6.7 m
Radar Cross Section
3.464 m², Large (>1 m²)

Expand to show TLE details & history
Last TLE update: 20 hours ago

TLE from 20 hours ago
0 ONEWEB-0205
1 48226U 21031S   26094.07513652 -.00000117  00000-0 -35117-3 0  9990
2 48226  87.8939 304.4866 0001605  81.2725 278.8586 13.14501326238537
Epoch: 2026-04-04T01:48Z
TLE epoch observation values (Epoch: 2026-04-04T01:48:11.795Z)
Latitude
-0.00006°
Longitude
85.03733°
Altitude
1,208.502 km
Speed
7.25 km/s
True Right ascension
20h 17m 56s
True Declination
0° 00' 00"
Sunlit
Object was in daylight at epoch
Visualization orbit readout
Latitude
Unknown
Longitude
Unknown
Altitude
Unknown
Speed
Unknown
Apparent Right ascension
Unknown
Apparent Declination
Unknown
Sunlit
N/A
Visualization observer readout
Local Sidereal Time
04:07:58
Azimuth
Unknown
Elevation
Unknown
Doppler factor
Unknown
Orbital elements
Apogee altitude
1,204.126 km
Perigee altitude
1,201.693 km
Semi-major axis
7,581.047 km
Eccentricity
0.00016
Inclination
87.8939°
RAAN
304.4866°
Arg. of periapsis
81.2725°
True anomaly
278.84043°
Mean anomaly
278.8586°
Eccentric anomaly
278.84951°
Mean motion
3.28813 °/min
Orbital period
109.48 mins
BSTAR
-0.00035117
Loading maneuver chart data...
Computing Atmospheric mass density...
Loading historical data...
Loading historical data...
Loading historical data...
Loading historical data...
Loading historical data...
Loading historical data...
Loading historical data...

Documentation

Showing up to 5 results
|